Regional Weather Roundup
Issued by NWS Grand Forks, ND

Home | Current Version | Previous Version | Graphics & Text | Print | Product List | Glossary On
Versions: 1 2 3 4 5 6 7 8 9 10 11 12 13 14 15 16 17 18 19 20 21 22 23 24 25 26 27 28 29 30 31 32 33 34 35 36 37 38 39 40 41 42 43 44 45 46 47 48 49 50
067
ASUS43 KFGF 250610
RWRFGF
PRAIRIE TO PINES  WEATHER ROUNDUP
NATIONAL WEATHER SERVICE EASTERN NORTH DAKOTA/GRAND FORKS ND
1200 AM CST SAT FEB 25 2017

 **SATELLITE DATA USED TO AUGMENT SKY COVER AT AUTOMATED STATIONS**
 *****  WEATHER ACROSS EASTERN NORTH DAKOTA  *****

CITY           SKY/WX    TMP DP  RH WIND       PRES   REMARKS
GRAND FORKS    FAIR      16   8  71 CALM      30.07F
6HR MIN TEMP:  15; 6HR MAX TEMP:  19;

GRAND FRKS AFB FAIR      14  11  85 CALM      30.07F
DEVILS LAKE    FAIR      15  12  88 SW5       30.04F WCI   8
6HR MIN TEMP:  15; 6HR MAX TEMP:  19;

FARGO          FAIR      17  12  80 NW8       30.08F WCI   7
WAHPETON ARPT  FAIR      18  10  73 NW9       30.08S WCI   6
$$

 ***** WEATHER ACROSS CENTRAL AND WESTERN NORTH DAKOTA  *****

CITY           SKY/WX    TMP DP  RH WIND       PRES   REMARKS
BISMARCK       MOCLDY    18  15  88 CALM      30.07F
6HR MIN TEMP:  16; 6HR MAX TEMP:  28;

MINOT          CLOUDY    23  16  74 S7        30.00F WCI  15
6HR MIN TEMP:  21; 6HR MAX TEMP:  27;

JAMESTOWN      FAIR      15  12  88 W5        30.06F WCI   8
6HR MIN TEMP:  15; 6HR MAX TEMP:  22;

MINOT AFB      NOT AVBL
GARRISON         N/A     14  10  84 S3        30.02F
WILLISTON      LGT SNOW  23  19  85 S3        30.02F FOG
6HR MIN TEMP:  20; 6HR MAX TEMP:  27; 6HR PCP:  0.01;

DICKINSON      FAIR      17  13  84 S6        29.99F WCI   9
6HR MIN TEMP:  16; 6HR MAX TEMP:  23;

HETTINGER      MOCLDY    20  14  77 SE3       30.03F
6HR MIN TEMP:  20; 6HR MAX TEMP:  27;

$$

 *****  OTHER AIRPORT OBSERVATIONS IN OUR AREA  *****

CITY           SKY/WX    TMP DP  RH WIND       PRES   REMARKS
WALHALLA       NOT AVBL
GRAFTON AIRPOR FAIR      12  12 100 CALM      30.10S
VALLEY CITY AR FAIR      14  14 100 NW6       30.08F WCI   5
CANDO          NOT AVBL
CAVALIER APRT    N/A      9   7  92 SW3       30.07F
GWINNER        FAIR      19  16  86 NW8       30.08F WCI   9
SHEYENNE NWR     N/A     11   8  87 NW2       29.95S
ROLLA          CLOUDY    14   9  79 SW14      29.98F WCI  -1
 ***** THE ABOVE OBSERVATIONS ARE NON NWS ARE NOT QUALITY
       CONTROLLED AND MAY MIS-REPORT RAIN FOR SNOW...
$$

  *****  WEATHER ACROSS NORTHERN MINNESOTA  *****

CITY           SKY/WX    TMP DP  RH WIND       PRES   REMARKS
FLAG ISLAND    FAIR       7   1  78 NW8       29.99F WCI  -6
WARROAD        FAIR       7   1  78 W6        30.02F WCI  -3
ROSEAU         FAIR       7   1  78 W6        30.04S WCI  -3
HALLOCK        FAIR       9   5  85 CALM      30.06F
THF RVR FALLS  FAIR      10   7  87 NW8       30.05F WCI  -2
6HR MIN TEMP:  10; 6HR MAX TEMP:  16;

BAUDETTE       FAIR       7   0  73 NW9       29.98F WCI  -7
6HR MIN TEMP:   7; 6HR MAX TEMP:  15;

WASKISH        FAIR       9   3  78 NW8       29.98F WCI  -4
CROOKSTON      FAIR      16  10  79 NW8       30.08F WCI   5
GREENBUSH NDAW   N/A      7   3  85 W3          N/A
$$
  *****  WEATHER ACROSS CENTRAL AND WEST MINNESOTA  *****

CITY           SKY/WX    TMP DP  RH WIND       PRES   REMARKS
FOSSTON        FAIR      10   5  79 NW10      30.02F WCI  -3
BEMIDJI        FAIR       9   2  75 NW13      29.97S WCI  -7
PARK RAPIDS    FAIR      12   1  61 NW12      29.96S WCI  -2
6HR MIN TEMP:  11; 6HR MAX TEMP:  20;

ELBOW LAKE     FAIR      15   7  72 NW14      30.03S WCI   0
WADENA         FAIR      12   7  79 NW10G20   29.97F WCI  -1
DETROIT LAKES  FAIR      14   9  79 NW15      30.01F WCI  -1
MOORHEAD       FAIR      16  10  79 N9        30.08F WCI   4
FERGUS FALLS   FAIR      16   7  67 N16       30.09S WCI   0
MORRIS MN      FAIR      18   9  68 NW24      30.02S WCI   0
STAPLES        FAIR      12   5  73 N13G20    29.96S WCI  -3
$$
  *****  WEATHER ELSEWHERE ACROSS MINNESOTA  *****

CITY           SKY/WX    TMP DP  RH WIND       PRES   REMARKS
DULUTH         FAIR      13   4  67 N16G23    29.82F WCI  -3
6HR MIN TEMP:  13; 6HR MAX TEMP:  19;

INTRNTL FALLS  FAIR       5   0  79 NW7       29.94F WCI  -7
6HR MIN TEMP:   5; 6HR MAX TEMP:  17;

ELY            FAIR       9   1  72 NW8       29.83F WCI  -4
CLOQUET        CLOUDY    12   7  79 NW8       29.85F WCI   1
WHEATON        FAIR      18   9  68 NW14      30.09S WCI   4
BRAINERD       CLOUDY    15   7  70 NW20      29.94S WCI  -2
6HR MIN TEMP:  15; 6HR MAX TEMP:  20;

HIBBING        FAIR      10   1  67 NW14      29.86F WCI  -6
6HR MIN TEMP:  10; 6HR MAX TEMP:  17;

ALEXANDRIA     FAIR      15   6  67 NW18      29.97S WCI  -2
6HR MIN TEMP:  15; 6HR MAX TEMP:  23;

SAINT CLOUD    FAIR      18   7  62 N16G23    29.93S WCI   3
6HR MIN TEMP:  18; 6HR MAX TEMP:  23;

MINNEAPOLIS    FAIR      20   5  52 N22G30    29.89S WCI   3
6HR MIN TEMP:  20; 6HR MAX TEMP:  25;

$$

  *****  WEATHER ACROSS SOUTH DAKOTA  *****

CITY           SKY/WX    TMP DP  RH WIND       PRES   REMARKS
SIOUX FALLS    FAIR      19  14  81 NW12      30.05R WCI   7
6HR MIN TEMP:  19; 6HR MAX TEMP:  26;

BROOKINGS      FAIR      18  14  86 NW10      30.03S WCI   6
WATERTOWN      FAIR      17  13  84 N14       30.03S WCI   3
6HR MIN TEMP:  17; 6HR MAX TEMP:  21;

HURON          FAIR      18  15  88 NW8       30.11S WCI   8
6HR MIN TEMP:  18; 6HR MAX TEMP:  29;

SISSETON         N/A     17  15  92 N8        30.07S WCI   7
ABERDEEN       FAIR      16  11  80 NW7       30.10F WCI   6
6HR MIN TEMP:  15; 6HR MAX TEMP:  24;

MITCHELL       FAIR      21  16  81 NW10      30.12S WCI  10
PIERRE         CLOUDY    20  13  74 SE3       30.10F
6HR MIN TEMP:  18; 6HR MAX TEMP:  28;

MOBRIDGE       CLOUDY    22  15  75 SE3       30.06F
RAPID CITY     FAIR      13   9  84 CALM      30.01F
6HR MIN TEMP:  13; 6HR MAX TEMP:  20;

$$

  *****  SOME WEATHER IN NEARBY STATES *****

CITY           SKY/WX    TMP DP  RH WIND       PRES   REMARKS
GLASGOW MT     FAIR      23  19  85 N6        30.03S WCI  16
6HR MIN TEMP:  23; 6HR MAX TEMP:  31; 6HR PCP: TRACE;

GREAT FALLS MT CLOUDY    23  18  81 CALM      30.04F
6HR MIN TEMP:  23; 6HR MAX TEMP:  31;

CHEYENNE WY    FAIR       6   2  83 W7        29.95F WCI  -6
6HR MIN TEMP:   3; 6HR MAX TEMP:  16;

SCOTTSBLUFF NE CLOUDY    12   7  80 CALM      30.04S
6HR MIN TEMP:   8; 6HR MAX TEMP:  24;

OMAHA NE       FAIR      24  15  68 NW18      30.05R WCI  10
6HR MIN TEMP:  23; 6HR MAX TEMP:  26;

DES MOINES IA  FAIR      22  15  75 NW16      29.93R WCI   8
6HR MIN TEMP:  22; 6HR MAX TEMP:  25; 6HR PCP:  0.02;

DAVENPORT IA   LGT SNOW  25  22  88 NW21G28   29.74R FOG     WCI  11
6HR MIN TEMP:  26; 6HR MAX TEMP:  33; 6HR PCP:  0.01;

CHICAGO IL     CLOUDY    33  28  81 NW12      29.60R WCI  24
6HR MIN TEMP:  33; 6HR MAX TEMP:  39; 6HR PCP: TRACE;

EAU CLAIRE WI  LGT SNOW  18  12  77 NW6       29.79S WCI  10
6HR MIN TEMP:  17; 6HR MAX TEMP:  21; 6HR PCP:  0.02;

LA CROSSE WI   LGT SNOW  21  14  74 N16       29.80R WCI   7
6HR MIN TEMP:  21; 6HR MAX TEMP:  26; 6HR PCP:  0.01;

$$

  *****  SOME NATIONAL WEATHER *****

CITY           SKY/WX    TMP DP  RH WIND       PRES   REMARKS
LA GUARDIA NY  CLOUDY    54  51  90 S5        29.84F
6HR MIN TEMP:  54; 6HR MAX TEMP:  62;

RALEIGH NC     FAIR      63  57  81 SW8       29.83R
6HR MIN TEMP:  63; 6HR MAX TEMP:  70;

ATLANTA GA     FAIR      66  55  67 SW9       29.78S
6HR MIN TEMP:  66; 6HR MAX TEMP:  73;

NEW ORLEANS LA FAIR      66  64  93 SW6       29.85S
6HR MIN TEMP:  65; 6HR MAX TEMP:  73;

OKLAHOMA CITY  FAIR      34  23  64 N9        30.15R
6HR MIN TEMP:  34; 6HR MAX TEMP:  46;

ALBUQUERQUE NM FAIR      34  -4  19 N9        30.08R
6HR MIN TEMP:  34; 6HR MAX TEMP:  46;

SALT LAKE CITY FAIR      24  13  62 SE9       30.15R WCI  14
6HR MIN TEMP:  24; 6HR MAX TEMP:  33;

LOS ANGELES CA FAIR      52  41  66 SW6       30.17S
6HR MIN TEMP:  52; 6HR MAX TEMP:  57;

BOISE ID       FAIR      27  18  69 E5        30.15F WCI  22
6HR MIN TEMP:  27; 6HR



USA.gov is the U.S. government's official web portal to all federal, state and local government web resources and services.